Regional Weather Roundup
Issued by NWS Binghamton, NY

Home | Current Version | Previous Version | Text Only | Print | Product List | Glossary On
Versions: 1 2 3 4 5 6 7 8 9 10 11 12 13 14 15 16 17 18 19 20 21 22 23 24 25 26 27 28 29 30 31 32 33 34 35 36 37 38 39 40 41 42 43 44 45 46 47 48 49 50
000
ASUS41 KBGM 222210
RWRBGM
RWRBGM
BINGHAMTON REGIONAL WEATHER ROUNDUP
NATIONAL WEATHER SERVICE BINGHAMTON NY
600 PM EDT FRI MAY 22 2015

Note: "fair" indicates few or no clouds below 12,000 feet with no
significant weather and/or obstructions to visibility.

* = Station(s) that does not report precipitation, such as rain,
snow, etc, also no thunder or fog.

!NYZ009-015>018-022>025-036-037-044>046-055>057-062-222300
...CENTRAL NEW YORK...

CITY           SKY/WX    TMP DP  RH WIND       PRES   REMARKS
BINGHAMTON     MOSUNNY   57  34  41 N13G24    30.05R
CORTLAND       PTSUNNY   55  34  44 NW10      30.08R
DANSVILLE      CLOUDY    57  37  47 NW13      30.12R
ELMIRA         MOSUNNY   61  35  37 NW10G22   30.06R
ITHACA         MOSUNNY   57  33  40 NW16      30.08R
MONTICELLO     SUNNY     61  30  31 NW14G22   30.01R
NORWICH        PTSUNNY   55  30  38 N10G17    30.07R
ONEONTA        MOSUNNY   54  27  35 NW10G18   30.04R
PENN YAN       PTSUNNY   57  32  38 N8G23     30.10R
ROME           MOSUNNY   57  29  34 W17G30    30.06R
SIDNEY         PTSUNNY   59  36  41 N8G16     30.04R
SYRACUSE       MOSUNNY   57  31  37 NW20G30   30.08R
$$

!PAZ038>040-043-044-047-048-072-222300
...NORTHEAST PENNSYLVANIA...

CITY           SKY/WX    TMP DP  RH WIND       PRES   REMARKS
HAZLETON       CLOUDY    64  39  39 W12G23    30.03S
SCRANTON       PTSUNNY   69  25  19 NW17G25   29.99R
$$
&&
KEY
WCI = WIND CHILL INDEX
VSB = VISIBILITY
HX  = HEAT INDEX
$$



USA.gov is the U.S. government's official web portal to all federal, state and local government web resources and services.